Hourly Weather Luh

Today, 20 June, Sunday

Time Temperature Precipitation Wind Pressure Humidity
00:00 +16°C° 0 mm 2 mps 738 mmHg 93%
01:00 +16°C° 0 mm 2 mps 738 mmHg 93%
02:00 +15°C° 0 mm 1 mps 738 mmHg 93%
03:00 +15°C° 0 mm 1 mps 737 mmHg 93%
04:00 +15°C° 0 mm 1 mps 737 mmHg 92%
05:00 +15°C° 0 mm 1 mps 737 mmHg 92%
06:00 +18°C° 0 mm 1 mps 737 mmHg 88%
07:00 +19°C° 0 mm 1 mps 737 mmHg 84%
08:00 +20°C° 0 mm 2 mps 737 mmHg 80%
09:00 +21°C° 0 mm 2 mps 737 mmHg 77%
10:00 +23°C° 0 mm 2 mps 737 mmHg 73%
11:00 +25°C° 0 mm 1 mps 737 mmHg 70%
12:00 +25°C° 0.3 mm 2 mps 737 mmHg 71%
13:00 +25°C° 0.3 mm 3 mps 736 mmHg 72%
14:00 +26°C° 0.3 mm 3 mps 736 mmHg 73%
15:00 +25°C° 1.3 mm 3 mps 736 mmHg 77%
16:00 +24°C° 1.3 mm 3 mps 736 mmHg 82%
17:00 +22°C° 1.3 mm 3 mps 735 mmHg 86%
18:00 +23°C° 0.8 mm 2 mps 735 mmHg 88%
19:00 +22°C° 0.8 mm 1 mps 735 mmHg 90%
20:00 +21°C° 0.8 mm 1 mps 735 mmHg 92%
21:00 +21°C° 0 mm 1 mps 735 mmHg 93%
22:00 +20°C° 0 mm 1 mps 734 mmHg 94%
23:00 +19°C° 0 mm 1 mps 734 mmHg 95%

Tomorrow, 21 June, Monday

Time Temperature Precipitation Wind Pressure Humidity
00:00 +19°C° 0 mm 1 mps 734 mmHg 95%
01:00 +17°C° 0 mm 2 mps 734 mmHg 96%
02:00 +17°C° 0 mm 2 mps 734 mmHg 97%
03:00 +17°C° 0 mm 2 mps 734 mmHg 97%
04:00 +18°C° 0 mm 1 mps 734 mmHg 97%
05:00 +18°C° 0 mm 1 mps 734 mmHg 97%
06:00 +18°C° 0 mm 2 mps 734 mmHg 94%
07:00 +19°C° 0 mm 2 mps 734 mmHg 92%
08:00 +21°C° 0 mm 3 mps 734 mmHg 90%
09:00 +22°C° 0 mm 3 mps 734 mmHg 84%
10:00 +24°C° 0 mm 3 mps 734 mmHg 77%
11:00 +26°C° 0 mm 4 mps 734 mmHg 71%
12:00 +27°C° 0 mm 4 mps 734 mmHg 69%
13:00 +27°C° 0 mm 4 mps 734 mmHg 67%
14:00 +28°C° 0 mm 4 mps 733 mmHg 65%
15:00 +28°C° 0.4 mm 4 mps 733 mmHg 69%
16:00 +27°C° 0.4 mm 4 mps 733 mmHg 73%
17:00 +27°C° 0.4 mm 4 mps 733 mmHg 77%
18:00 +26°C° 0.5 mm 3 mps 733 mmHg 81%
19:00 +24°C° 0.5 mm 3 mps 733 mmHg 85%
20:00 +22°C° 0.5 mm 3 mps 733 mmHg 89%
21:00 +21°C° 0 mm 3 mps 733 mmHg 90%
22:00 +20°C° 0 mm 2 mps 733 mmHg 91%
23:00 +20°C° 0 mm 2 mps 733 mmHg 92%

Day after tomorrow, 22 June, Tuesday

Time Temperature Precipitation Wind Pressure Humidity
00:00 +19°C° 0 mm 2 mps 733 mmHg 92%
01:00 +19°C° 0 mm 2 mps 733 mmHg 92%
02:00 +18°C° 0 mm 2 mps 733 mmHg 92%
03:00 +18°C° 0 mm 2 mps 733 mmHg 92%
04:00 +18°C° 0 mm 2 mps 733 mmHg 92%
05:00 +18°C° 0 mm 2 mps 733 mmHg 92%
06:00 +20°C° 0 mm 2 mps 734 mmHg 88%
07:00 +22°C° 0 mm 1 mps 734 mmHg 83%
08:00 +24°C° 0 mm 1 mps 734 mmHg 78%
09:00 +25°C° 0 mm 1 mps 734 mmHg 73%
10:00 +27°C° 0 mm 2 mps 734 mmHg 69%
11:00 +28°C° 0 mm 2 mps 735 mmHg 64%
12:00 +29°C° 0 mm 2 mps 735 mmHg 63%
13:00 +29°C° 0 mm 2 mps 735 mmHg 62%
14:00 +30°C° 0 mm 2 mps 735 mmHg 61%
15:00 +29°C° 0.2 mm 2 mps 735 mmHg 64%
16:00 +29°C° 0.2 mm 2 mps 735 mmHg 67%
17:00 +29°C° 0.2 mm 2 mps 735 mmHg 70%
18:00 +28°C° 0.4 mm 2 mps 735 mmHg 75%
19:00 +26°C° 0.4 mm 2 mps 735 mmHg 81%
20:00 +25°C° 0.4 mm 2 mps 735 mmHg 86%
21:00 +24°C° 0 mm 2 mps 735 mmHg 87%
22:00 +23°C° 0 mm 1 mps 735 mmHg 89%
23:00 +22°C° 0 mm 1 mps 735 mmHg 90%

23 June, Wednesday

Time Temperature Precipitation Wind Pressure Humidity
00:00 +22°C° 0 mm 1 mps 735 mmHg 91%
01:00 +22°C° 0 mm 1 mps 735 mmHg 91%
02:00 +21°C° 0 mm 1 mps 735 mmHg 92%
03:00 +21°C° 0 mm 1 mps 735 mmHg 92%
04:00 +21°C° 0 mm 1 mps 736 mmHg 92%
05:00 +21°C° 0 mm 1 mps 736 mmHg 92%
06:00 +22°C° 0 mm 1 mps 736 mmHg 87%
07:00 +24°C° 0 mm 1 mps 736 mmHg 82%
08:00 +25°C° 0 mm 1 mps 736 mmHg 78%
09:00 +26°C° 0 mm 2 mps 736 mmHg 73%
10:00 +28°C° 0 mm 3 mps 736 mmHg 69%
11:00 +29°C° 0 mm 3 mps 737 mmHg 65%
12:00 +30°C° 0 mm 3 mps 737 mmHg 63%
13:00 +30°C° 0 mm 3 mps 737 mmHg 61%
14:00 +31°C° 0 mm 3 mps 737 mmHg 58%
15:00 +31°C° 0.1 mm 3 mps 737 mmHg 61%
16:00 +31°C° 0.1 mm 3 mps 737 mmHg 64%
17:00 +31°C° 0.1 mm 3 mps 737 mmHg 68%
18:00 +29°C° 0.1 mm 3 mps 737 mmHg 73%
19:00 +28°C° 0.1 mm 3 mps 737 mmHg 79%
20:00 +26°C° 0.1 mm 2 mps 737 mmHg 85%
21:00 +25°C° 0 mm 2 mps 737 mmHg 86%
22:00 +24°C° 0 mm 2 mps 737 mmHg 87%
23:00 +23°C° 0 mm 2 mps 738 mmHg 88%

24 June, Thursday

Time Temperature Precipitation Wind Pressure Humidity
00:00 +23°C° 0.2 mm 2 mps 738 mmHg 90%
01:00 +22°C° 0.2 mm 1 mps 738 mmHg 91%
02:00 +22°C° 0.2 mm 1 mps 738 mmHg 93%
03:00 +21°C° 0 mm 1 mps 738 mmHg 93%
04:00 +21°C° 0 mm 1 mps 738 mmHg 94%
05:00 +20°C° 0 mm 2 mps 738 mmHg 94%
06:00 +21°C° 0 mm 2 mps 738 mmHg 90%
07:00 +23°C° 0 mm 2 mps 739 mmHg 86%
08:00 +24°C° 0 mm 2 mps 739 mmHg 82%
09:00 +25°C° 0 mm 2 mps 739 mmHg 78%
10:00 +27°C° 0 mm 1 mps 739 mmHg 73%
11:00 +28°C° 0 mm 1 mps 739 mmHg 69%
12:00 +29°C° 0 mm 1 mps 739 mmHg 66%
13:00 +30°C° 0 mm 1 mps 739 mmHg 64%
14:00 +31°C° 0 mm 1 mps 739 mmHg 61%
15:00 +31°C° 0.2 mm 1 mps 739 mmHg 63%
16:00 +31°C° 0.2 mm 2 mps 739 mmHg 65%
17:00 +30°C° 0.2 mm 2 mps 738 mmHg 67%
18:00 +29°C° 0.2 mm 2 mps 738 mmHg 73%
19:00 +27°C° 0.2 mm 2 mps 738 mmHg 78%
20:00 +26°C° 0.2 mm 2 mps 737 mmHg 84%
21:00 +25°C° 0.1 mm 2 mps 737 mmHg 85%
22:00 +24°C° 0.1 mm 2 mps 737 mmHg 86%
23:00 +23°C° 0.1 mm 2 mps 737 mmHg 87%

25 June, Friday

Time Temperature Precipitation Wind Pressure Humidity
00:00 +21°C° 0 mm 2 mps 737 mmHg 87%
01:00 +21°C° 0 mm 2 mps 737 mmHg 86%
02:00 +20°C° 0 mm 2 mps 736 mmHg 85%
03:00 +20°C° 0 mm 2 mps 736 mmHg 86%
04:00 +20°C° 0 mm 2 mps 736 mmHg 87%
05:00 +20°C° 0 mm 2 mps 736 mmHg 88%
06:00 +23°C° 0 mm 2 mps 736 mmHg 83%
07:00 +25°C° 0 mm 2 mps 736 mmHg 79%
08:00 +27°C° 0 mm 2 mps 736 mmHg 74%
09:00 +29°C° 0 mm 2 mps 736 mmHg 68%
10:00 +30°C° 0 mm 3 mps 736 mmHg 61%
11:00 +33°C° 0 mm 3 mps 736 mmHg 55%
12:00 +32°C° 0.2 mm 4 mps 737 mmHg 59%
13:00 +30°C° 0.2 mm 4 mps 737 mmHg 62%
14:00 +30°C° 0.2 mm 5 mps 737 mmHg 66%
15:00 +29°C° 0.2 mm 5 mps 737 mmHg 68%
16:00 +28°C° 0.2 mm 5 mps 737 mmHg 70%
17:00 +27°C° 0.2 mm 5 mps 737 mmHg 72%
18:00 +26°C° 0.2 mm 4 mps 737 mmHg 78%
19:00 +24°C° 0.2 mm 3 mps 738 mmHg 83%
20:00 +21°C° 0.2 mm 2 mps 738 mmHg 88%
21:00 +20°C° 0.1 mm 2 mps 738 mmHg 89%
22:00 +20°C° 0.1 mm 3 mps 738 mmHg 90%
23:00 +19°C° 0.1 mm 3 mps 738 mmHg 91%
Show more

We Need Your Consent

Meteoprog and our Service Providers may store and access personal data such as cookies, device identifiers or other similar technologies on your device and process such data to personalise content and ads, as well as provide social media features and to analyse the traffic.

  • Store and/or access information on your device

    Cookies, device identifiers or other information can be stored or accessed on your device for the purposes indicated above.

  • Personalised ads and content, ad and content measurement, audience insights, and products development

    Ads and content can be personalised based on a profile. More data can be added to better personalise ads and content. Ad and content performance can be measured. Insights about the audience who saw the ads and content can be derived. Such data can be used to develop or improve user’s experience, systems and software.

By clicking ‘I Agree’ you will allow the use of indicated cookies, device identifiers, web beacons or other similar technologies. Your settings can be changed in the browser on your device.

For certain purposes, legitimate interests may be relied on, rather than consent. You can read more about this in our Privacy and Cookie Policy.